Regional Weather Roundup
Issued by NWS

Home | Current Version | Previous Version | Graphics & Text | Print | Product List | Glossary On
Versions: 1 2 3 4 5 6 7 8 9 10 11 12 13 14 15 16 17 18 19 20 21 22 23 24 25 26 27 28 29 30 31 32 33 34 35 36 37 38 39 40 41 42 43 44 45 46 47 48 49 50
000
ASUS44 KMEG 232310
RWRTN
TENNESSEE HOURLY STATE WEATHER ROUNDUP
NATIONAL WEATHER SERVICE MEMPHIS TN
600 PM CDT THU OCT 23 2014

TNZ002-004-019-021-049-052-054-088>092-240000-
WEST TENNESSEE

CITY           SKY/WX    TMP DP  RH WIND       PRES   REMARKS
MEMPHIS INTL   CLOUDY    59  44  57 N3        30.13F
NWS MEMPHIS      N/A     58 N/A N/A MISG        N/A
JACKSON        CLOUDY    60  43  53 NW3       30.12S
DYERSBURG      CLOUDY    57  39  51 CALM      30.15S
UNION CITY     CLEAR     55  46  71 CALM      30.13S
PARIS          CLEAR     54  45  71 CALM      30.14R
HUNTINGDON     CLOUDY    56  44  64 N3        30.13S
LEXINGTON      CLEAR     57  48  72 N3        30.10F
SAVANNAH       CLEAR     57  52  82 CALM      30.11S
$$

TNZ008-025-027-028-033-062-065-066-240000-
NORTH MIDDLE TENNESSEE

CITY           SKY/WX    TMP DP  RH WIND       PRES   REMARKS
NASHVILLE      MOCLDY    61  43  51 CALM      30.12R
CLARKSVILLE    MOCLDY    58  42  55 NE3       30.12F
SMYRNA         MOCLDY    57  45  64 CALM      30.12S
COOKEVILLE     CLEAR     52  46  82 CALM      30.11S
CROSSVILLE     PTCLDY    58  39  49 N6        30.11S
$$

TNZ061-075-076-078-094-096-097-240000-
SOUTH MIDDLE TENNESSEE

CITY           SKY/WX    TMP DP  RH WIND       PRES   REMARKS
FAYETTEVILLE   CLEAR     57  41  54 N5        30.09S
TULLAHOMA      CLEAR     55  43  62 N5        30.10S
WINCHESTER     CLEAR     57  43  58 CALM      30.09F
MCMINNVILLE    CLEAR     54  45  71 CALM      30.10S
COLUMBIA         N/A     57  48  72 CALM      30.09S
SHELBYVILLE    CLEAR     57  45  62 CALM      30.11S
$$

TNZ017-018-042-046-047-240000-
NORTHEAST TENNESSEE

CITY           SKY/WX    TMP DP  RH WIND       PRES   REMARKS
TRI CITIES     PTCLDY    52  41  66 CALM      30.12R
ELIZABETHTON   CLEAR     50  39  66 NW3       30.12R
$$

TNZ012-013-036-069-073-074-240000-
CENTRAL EAST TENNESSEE

CITY           SKY/WX    TMP DP  RH WIND       PRES   REMARKS
KNOXVILLE      MOCLDY    55  41  59 NE5       30.09R
OAK RIDGE      MOCLDY    58  45  62 CALM      30.11S
GATLINBURG     CLEAR     52  41  66 CALM      30.11R
MORRISTOWN     CLEAR     55  43  62 CALM      30.12R
$$

TNZ083-085-099-240000-
SOUTHEAST TENNESSEE

CITY           SKY/WX    TMP DP  RH WIND       PRES   REMARKS
CHATTANOOGA    MOCLDY    62  43  49 N6        30.08S
$$

SKY/WX REPORTED AS FAIR MEANS FEW OR NO CLOUDS BELOW
12 THOUSAND FEET.




USA.gov is the U.S. government's official web portal to all federal, state and local government web resources and services.